This is the latest recevied weather packets stored in our database for station/object K4OBI. If no packets are shown the sender has not sent any weather packets the latest 10 day(s).
| Time | Temp. | Humidity | Pressure | Rain* | Wind** | Luminosity | Snow |
|---|---|---|---|---|---|---|---|
| 1777563961 | 18.89° C | 64% | 1014 hPa | 0 mm | - | - | - |
| 1777563851 | 18.89° C | 65% | 1014 hPa | 0 mm | - | - | - |
| 1777563791 | 18.89° C | 64% | 1014.1 hPa | 0 mm | - | - | - |
| 1777563730 | 18.89° C | 67% | 1014 hPa | 0 mm | - | - | - |
| 1777563670 | 18.89° C | 67% | 1014.1 hPa | 0 mm | - | - | - |
| 1777563609 | 18.33° C | 68% | 1014.1 hPa | 0 mm | - | - | - |
| 1777563547 | 18.33° C | 68% | 1014.1 hPa | 0 mm | - | - | - |
| 1777563486 | 18.33° C | 65% | 1014.1 hPa | 0 mm | - | - | - |
| 1777563421 | 18.33° C | 65% | 1014.1 hPa | 0 mm | - | - | - |
| 1777563359 | 18.33° C | 66% | 1014.2 hPa | 0 mm | - | - | - |
| 1777563301 | 18.33° C | 66% | 1014.1 hPa | 0 mm | - | - | - |
| 1777563240 | 18.33° C | 69% | 1014.2 hPa | 0 mm | - | - | - |
| 1777563180 | 18.33° C | 68% | 1014 hPa | 0 mm | - | - | - |
| 1777563115 | 18.33° C | 70% | 1014.1 hPa | 0 mm | - | - | - |
| 1777563055 | 18.33° C | 69% | 1014.2 hPa | 0 mm | - | - | - |
| 1777562995 | 18.33° C | 67% | 1014.2 hPa | 0 mm | - | - | - |
| 1777562936 | 18.33° C | 67% | 1014.1 hPa | 0 mm | - | - | - |
| 1777562874 | 18.33° C | 69% | 1014.3 hPa | 0 mm | - | - | - |
| 1777562810 | 18.33° C | 69% | 1014.3 hPa | 0 mm | - | - | - |
| 1777562748 | 18.33° C | 68% | 1014.2 hPa | 0 mm | - | - | - |
| 1777562689 | 18.33° C | 69% | 1014.2 hPa | 0 mm | - | - | - |
| 1777562627 | 18.33° C | 70% | 1014.2 hPa | 0 mm | - | - | - |
| 1777562568 | 18.33° C | 69% | 1014.2 hPa | 0 mm | - | - | - |
| 1777562503 | 18.33° C | 68% | 1014.2 hPa | 0 mm | - | - | - |
| 1777562441 | 18.33° C | 72% | 1014.3 hPa | 0 mm | - | - | - |
* Rain latest hour (hover to see other rain measurements)
** Current wind speed in m/s (hover to see current wind gust speed)